User: anonymous   Login
Location: Unspecified
(0.0000°N, 0.0000°E)
Time: 11:51:40
(UTC+00:00)
Language:

Delta IV Demo - Orbit

View from above orbital plane
View from above orbital plane
View from above satellite
View from above satellite

Ground track
Ground track

The orbit data is extracted from the following two-line orbital elements,

1 28500U 04050A   17148.61340960 0.00000000  00000-0  00000-0 0    07
2 28500  15.8611  42.2444 2768701 169.6918 197.4232  1.41307559    03
Epoch (UTC): 28 May 2017 14:43:18
Eccentricity: 0.2768701
inclination: 15.8611°
perigee height: 17879 km
apogee height: 36454 km
right ascension of ascending node: 42.2444°
argument of perigee: 169.6918°
revolutions per day: 1.41307559
mean anomaly at epoch: 197.4232°
orbit number at epoch: 0

The dashed part of the orbit path shows where the satellite is in the earth's shadow,  

DLR